Regional Weather Roundup
Issued by NWS

Home | Current Version | Previous Version | Text Only | Print | Product List | Glossary Off
Versions: 1 2 3 4 5 6 7 8 9 10 11 12 13 14 15 16 17 18 19 20 21 22 23 24 25 26 27 28 29 30 31 32 33 34 35 36 37 38 39 40 41 42 43 44 45 46 47 48 49 50

904
ASUS45 KCYS 172210
RWRWY

WYOMING REGIONAL WEATHER ROUNDUP
NATIONAL WEATHER SERVICE CHEYENNE WY
400 PM MDT TUE OCT 17 2017

NOTE:  "FAIR" INDICATES FEW OR NO CLOUDS BELOW 12,000 FEET
WITH NO SIGNIFICANT WEATHER AND/OR OBSTRUCTIONS TO VISIBILITY.

WYZ001-172300-
YELLOWSTONE NATIONAL PARK

CITY           SKY/WX    TMP DP  RH WIND       PRES   REMARKS
LK YELLOWSTONE NOT AVBL
W YELLOWSTONE  NOT AVBL

$$
WYZ002>013-054>058-071-098>099-172300-
NORTHERN WYOMING

CITY           SKY/WX    TMP DP  RH WIND       PRES   REMARKS
JACKSON        FAIR      64  14  14 SW18      30.16F
CODY           FAIR      72  16  12 W7G18     29.98F
GREYBULL       FAIR      69  20  15 S9        29.93F
WORLAND        FAIR      73  24  16 E5        29.94F
SHERIDAN       FAIR      79  18  10 E5        29.87F
BUFFALO        FAIR      74   6   7 CALM      29.95F
GILLETTE       FAIR      74   9   8 W9        29.92F
HULETT         FAIR      72  23  16 S13       29.93F
NEWCASTLE      FAIR      70  19  14 CALM      29.96F

$$
WYZ014>020-022>026-101>103-172300-
CENTRAL WYOMING

CITY           SKY/WX    TMP DP  RH WIND       PRES   REMARKS
BIG PINEY      FAIR      65   4   9 W16G24    30.21F
PINEDALE       FAIR      61  14  16 E5        30.22F
DUBOIS         FAIR      61  10  13 W21G31    30.13F
LANDER         FAIR      66  32  28 CALM      30.04F
RIVERTON       FAIR      68  21  16 VRB5      30.05F
CASPER         FAIR      74  11   9 SW21G31   30.03F
DOUGLAS        FAIR      73  11   9 W17       30.02F

$$
WYZ021-027>030-104>119-172300-
SOUTHERN WYOMING

CITY           SKY/WX    TMP DP  RH WIND       PRES   REMARKS
EVANSTON       FAIR      69   0   6 W24G33    30.24F
KEMMERER       FAIR      64   5   9 W21       30.24F
FORT BRIDGER   FAIR      71   4   7 W18G28    30.26S
ROCK SPRINGS   FAIR      65   2   8 W14       30.22F
DIXON          FAIR      68   9  10 SW14      30.26S
RAWLINS        FAIR      65   9  11 SW24G32   30.20S
SARATOGA       FAIR      64  12  13 W16G23    30.23S
LARAMIE        FAIR      66   9  10 W17G28    30.19F
CHEYENNE       FAIR      71  11  10 W13G22    30.13F
TORRINGTON     FAIR      78   4   5 W12       29.98F
PINE BLUFFS    FAIR      73  12   9 W15G24    30.08S

$$




USA.gov is the U.S. government's official web portal to all federal, state and local government web resources and services.